Location: *
(38.4303°S, 157.0822°W)
Time: 14:31:05
(UTC+00:00)

USA 307 - Pass Details

Date: 21 May 2024
Orbit: 495 x 502 km, 54.0° (Epoch: 10 March)

Event Time Altitude Azimuth Distance (km) Brightness Sun altitude
Exits shadow 15:07:43 27° 126° (SE) 983 4.5 -27.3°
Drops below altitude 10° 15:09:37 10° 130° (SE) 1,707 5.8 -27.0°
Sets 15:11:53 0° 131° (SE) 2,610 6.9 -26.5°
